Weather in Sheremetyevskiy

Russia / Moscow Oblast     55°58′58″N   37°29′48″E
temp.,
°C
wind,
m/s
gust,
m/s
humid.,
%
clouds,
%
prec.,
mm/h
press.,
hPa
HPBL,
m
23 october, sat
sat2300:00+6wsw7146981 0.0 1002917
03:00+5sw61374100 0.0 1002867
06:00+6sw61273100 0.0 10011065
09:00+5sw61279100 0.0 10021365
12:00+7sw71266100 0.1 10031459
15:00+8wsw6116249 0.2 10041520
18:00+5wsw4106935 0.1 1006604
21:00+4wsw4118025 0.1 1008636
24 october, sun
sun2400:00+4wsw5880100 0.0 1008979
03:00+3sw4996100 0.4 1009752
06:00+3w5976100 0.2 1009846
09:00+2wnw41196100 0.8 1011671
12:00+2nw51193100 0.3 1014703
15:00+2nw6118699 0.6 10161095
18:00+2nnw6117041 0.1 10191140
21:000nnw6118110 0.1 1022708
25 october, mon
mon2500:00−1nw510805 0.0 1025506
03:00−1nw48885 0.0 1026354
06:00−2nw3690100 0.0 1028254
09:00−1wnw34785 0.0 1029270
12:00+2wsw456262 0.0 1029699
15:00+3wsw4858100 0.0 1027776
18:00+2sw51167100 0.0 1026561
21:00+1sw513735 0.0 1025504
26 october, tue
tue2600:000wsw514805 0.0 1025442
03:000wsw51486100 0.0 1024424
06:00+1wsw51486100 0.0 1023413
09:00+1wsw51480100 0.0 1023442
12:00+5wsw51365100 0.0 1022522
15:00+6wsw6146373 0.0 1021644
18:00+5sw51468100 0.0 1020552
21:00+4wsw5147298 0.0 1020518
27 october, wed
wed2700:00+3sw5147568 0.0 1020468
03:00+2sw513785 0.0 1019404
06:00+2sw5137868 0.0 1018373
09:00+2sw5137499 0.0 1018441
12:00+5sw61362100 0.0 1016588
15:00+6sw61162100 0.0 1015726
18:00+5wsw61171100 0.0 1015876
21:00+5w41089100 0.4 1016565